Terminal Aerodrome Forecast
Issued by NWS San Angelo, TX

Home | Current Version | Previous Version | Text Only | Print | Product List | Glossary On
Versions: 1 2 3 4 5 6 7 8 9 10 11 12 13
000
FTUS44 KSJT 300500
TAFSJT
TAF
KSJT 300520Z 3006/0106 15004KT P6SM FEW250
      TEMPO 3012/3015 SCT040
     FM301500 18011G18KT P6SM SCT050
     FM010000 17010KT P6SM SCT250=

USA.gov is the U.S. government's official web portal to all federal, state and local government web resources and services.